This demonstration page uses our WeatherBlox Daily Observations layout. Learn more.

Left ArrowRight Arrow

39.08367, -84.50855

Hourly Observations for March 11, 2015

Temp ( °F °C ) Dew Point ( °F °C ) Humidity (%) Winds ( mph kmh ) Pressure ( in mb ) Visibility ( mi km ) Precip ( " mm )
12:04 am 00:04 Cloudy with Mist and Fog 45 7 45 7 100 100 N N/A 30.06 1018 1.5 2.41401 N/A
12:51 am 00:51 Cloudy with Mist and Fog 46 8 46 8 100 100 N N/A 30.09 1019 2.5 4.02335 N/A
12:53 am 00:53 Cloudy with Mist and Fog 46 7.8 46 7.8 100 100 N N/A 30.08 1019 2.5 4.02335 N/A
1:03 am 01:03 Cloudy with Mist and Fog 45 7 45 7 100 100 N N/A 30.09 1019 1.25 2.011675 N/A
1:31 am 01:31 Cloudy with Mist and Fog 45 7.2 45 7.2 100 100 N N/A 30.09 1019 2.5 4.02335 N/A
1:53 am 01:53 Cloudy with Mist and Fog 47 8.3 47 8.3 100 100 W 3 6 30.1 1019 3 4.82802 N/A
2:53 am 02:53 Cloudy with Mist and Fog 46 7.8 46 7.8 100 100 W 3 6 30.11 1020 3 4.82802 N/A
3:08 am 03:08 Cloudy with Mist and Fog 46 8 46 8 100 100 W 3 6 30.12 1020 2.5 4.02335 N/A
3:32 am 03:32 Cloudy with Mist and Fog 46 8 46 8 100 100 NW 3 6 30.12 1020 3 4.82802 N/A
3:53 am 03:53 Cloudy with Mist and Fog 46 7.8 46 7.8 100 100 N N/A 30.12 1020 5 8.0467 N/A
4:11 am 04:11 Cloudy with Mist and Fog 46 7.8 45 7.2 96 96 N N/A 30.12 1020 5 8.0467 N/A
4:28 am 04:28 Cloudy with Mist and Fog 45 7 45 7 100 100 N N/A 30.12 1020 2.5 4.02335 N/A
4:35 am 04:35 Cloudy with Mist and Fog 46 7.8 46 7.8 100 100 N N/A 30.12 1020 4 6.43736 N/A
4:48 am 04:48 Cloudy with Mist and Fog 45 7 45 7 100 100 N N/A 30.12 1020 4 6.43736 N/A
4:53 am 04:53 Cloudy with Mist and Fog 45 7.2 45 7.2 100 100 N N/A 30.12 1020 3 4.82802 N/A
5:06 am 05:06 Cloudy with Mist and Fog 45 7 45 7 100 100 N N/A 30.12 1020 2 3.21868 N/A
5:13 am 05:13 Cloudy with Mist and Fog 44 6.7 44 6.7 100 100 N N/A 30.12 1020 1.25 2.011675 N/A
5:30 am 05:30 Cloudy with Mist and Fog 45 7 45 7 100 100 N N/A 30.12 1020 0.75 1.207005 N/A
5:53 am 05:53 Mostly Cloudy with Fog 44 6.7 44 6.7 100 100 N N/A 30.14 1021 0.5 0.80467 N/A
6:53 am 06:53 Cloudy with Mist and Fog 44 6.7 44 6.7 100 100 N N/A 30.17 1022 0.75 1.207005 N/A
7:03 am 07:03 Cloudy with Mist and Fog 45 7 45 7 100 100 W 3 6 30.18 1022 1.5 2.41401 N/A
7:10 am 07:10 Cloudy with Mist and Fog 45 7 45 7 100 100 WNW 5 7 30.18 1022 3 4.82802 N/A
7:17 am 07:17 Cloudy with Mist and Fog 45 7.2 45 7.2 100 100 WNW 3 6 30.18 1022 2 3.21868 N/A
7:53 am 07:53 Cloudy with Mist and Fog 45 7.2 45 7.2 100 100 N N/A 30.19 1022 1.5 2.41401 N/A
8:53 am 08:53 Cloudy with Mist and Fog 44 6.7 44 6.7 100 100 W 6 9 30.21 1023 1.5 2.41401 N/A
9:18 am 09:18 Cloudy with Mist and Fog 45 7 45 7 100 100 WNW 5 7 30.21 1023 1.5 2.41401 N/A
9:53 am 09:53 Cloudy with Mist and Fog 45 7.2 44 6.7 97 97 N N/A 30.23 1024 1.5 2.41401 N/A
10:16 am 10:16 Cloudy with Mist and Fog 45 7 45 7 100 100 undefined N/A 30.24 1024 1.5 2.41401 N/A
10:35 am 10:35 Cloudy with Mist and Fog 45 7.2 44 6.7 97 97 N 5 7 30.24 1024 1.5 2.41401 N/A
10:51 am 10:51 Cloudy with Mist and Fog 46 8 45 7 93 93 NNE 3 6 30.24 1024 2.5 4.02335 N/A
10:53 am 10:53 Cloudy with Mist and Fog 46 7.8 44 6.7 93 93 VRB 3 6 30.25 1024 2.5 4.02335 N/A
11:14 am 11:14 Cloudy with Mist and Fog 46 8 45 7 93 93 NNE 5 7 30.24 1024 3 4.82802 N/A
11:53 am 11:53 Mostly Cloudy with Mist and Fog 47 8.3 44 6.7 90 90 N N/A 30.25 1024 4 6.43736 N/A
12:10 pm 12:10 Partly Cloudy with Mist and Fog 48 8.9 45 7.2 89 89 S 3 6 30.24 1024 5 8.0467 N/A
12:53 pm 12:53 Sunny 52 11.1 46 7.8 80 80 VRB 3 6 30.24 1024 7 11.26538 N/A
1:53 pm 13:53 Sunny 57 13.9 46 7.8 67 67 SW 8 13 30.24 1024 8 12.87472 N/A
2:53 pm 14:53 Sunny 59 15 46 7.8 62 62 VRB 3 6 30.21 1023 8 12.87472 N/A
3:53 pm 15:53 Sunny 62 16.7 47 8.3 58 58 NE 6 9 30.22 1023 8 12.87472 N/A
4:53 pm 16:53 Sunny 64 17.8 45 7.2 50 50 VRB 5 7 30.22 1023 9 14.48406 N/A
5:53 pm 17:53 Sunny 63 17.2 44 6.7 50 50 VRB 5 7 30.23 1024 10 16.0934 N/A
6:53 pm 18:53 Sunny 61 16.1 43 6.1 52 52 NNW 8 13 30.25 1024 10 16.0934 N/A
7:53 pm 19:53 Clear 59 15 43 6.1 56 56 NW 3 6 30.27 1025 10 16.0934 N/A
8:53 pm 20:53 Clear 48 8.9 45 7.2 89 89 N N/A 30.31 1026 10 16.0934 N/A
9:53 pm 21:53 Hazy 50 10 45 7.2 83 83 N 9 15 30.35 1028 5 8.0467 N/A
10:53 pm 22:53 Clear with Mist and Fog 47 8.3 43 6.1 86 86 NNE 8 13 30.39 1029 4 6.43736 N/A
11:53 pm 23:53 Clear with Mist and Fog 45 7.2 41 5 86 86 NNE 10 17 30.4 1030 4 6.43736 N/A

Powered by AerisWeather